FW5236 Weather Reports


time (UTC)temp
F
wind
direction
speed
knots
gust
knots
rain 1hr
in
rain 24hr
in
rain mn
in
humidity
%
barometer
mb
20260904034533 53 292 0.9 3.5 0.00 0.03 0.00 83 1013.2
20260904033029 54 312 0.9 0.9 0.00 0.06 0.00 84 1012.9
20260904031529 0 0 0.0 0.0 0.00 0.16 0.00 100
20260904030145 55 1 0.9 2.6 0.00 0.32 0.00 80 1012.6
20260904024531 0 0 0.0 0.0 0.00 0.32 0.00 100
20260904021529 55 357 0.9 3.5 0.00 0.32 0.00 78 1012.6
20260904014539 56 1 0.9 3.5 0.00 0.32 0.00 77 1012.3
20260904013031 56 36 0.9 4.3 0.00 0.32 0.00 75 1012.0
20260904004531 58 28 1.7 7.0 0.00 0.32 0.00 70 1012.1
20260904003031 59 22 1.7 6.1 0.00 0.32 0.00 67 1012.0
20260904001529 61 37 1.7 8.7 0.00 0.32 0.00 63 1011.8
20260904000032 63 34 2.6 8.7 0.00 0.32 0.00 57 1011.7
20260903233030 67 49 0.9 5.2 0.00 0.32 0.00 48 1011.6
20260903231531 68 52 0.0 2.6 0.00 0.32 0.00 47 1011.7
20260903230108 69 38 0.0 0.9 0.00 0.32 0.00 46 1011.8
20260903224646 69 15 0.0 0.9 0.00 0.32 0.00 44 1011.9
20260903223030 0 0 0.0 0.0 0.00 0.32 0.00 100
20260903221529 0 0 0.0 0.0 0.00 0.34 0.00 100
20260903220107 68 346 0.0 0.0 0.00 0.34 0.00 47 1012.1
20260903214530 0 0 0.0 0.0 0.00 0.34 0.00 100
20260903211532 68 32 0.0 3.5 0.00 0.34 0.00 46 1012.0
20260903210030 68 294 2.6 4.3 0.00 0.34 0.00 42 1012.2
20260903204530 68 237 3.5 7.0 0.00 0.34 0.00 42 1012.3
20260903203031 70 288 2.6 7.0 0.00 0.34 0.00 42 1012.4
20260903201529 71 65 0.0 0.9 0.00 0.34 0.00 50 1012.8
20260903193030 62 45 0.0 0.0 0.00 0.34 0.00 72 1014.0
20260903191531 62 45 0.0 0.0 0.00 0.34 0.00 73 1014.1
20260903190031 61 45 0.0 0.0 0.00 0.34 0.00 73 1014.1
20260903184607 60 45 0.0 0.0 0.00 0.34 0.00 75 1014.2
20260903183029 59 51 0.0 0.9 0.00 0.34 0.00 76 1014.2
20260903181534 59 57 0.0 0.0 0.00 0.34 0.00 78 1014.2
20260903180032 58 22 0.0 0.9 0.00 0.34 0.00 80 1014.1
20260903174528 57 14 0.0 0.9 0.00 0.34 0.00 80 1014.1
20260903173031 56 35 0.0 1.7 0.00 0.34 0.00 83 1014.1
20260903171532 55 34 0.0 1.7 0.00 0.34 0.00 83 1014.1
20260903170030 55 13 0.0 1.7 0.00 0.34 0.00 83 1014.3
20260903164529 54 23 0.0 2.6 0.00 0.34 0.00 83 1014.3
20260903163032 54 21 0.0 2.6 0.00 0.34 0.00 82 1014.2
20260903161531 55 22 0.0 2.6 0.00 0.34 0.00 82 1014.3
20260903154530 52 180 0.0 0.0 0.00 0.34 0.00 87 1014.2
20260903151604 49 180 0.0 0.9 0.00 0.34 0.00 90 1014.2
20260903150030 49 263 0.0 1.7 0.00 0.34 0.00 91 1014.2
20260903143031 46 345 0.0 0.9 0.00 0.34 0.00 92 1014.2
20260903141605 46 16 0.0 1.7 0.00 0.34 0.00 92 1014.1
20260903140032 46 225 0.9 2.6 0.00 0.34 0.00 92 1014.0
20260903134607 46 225 0.9 1.7 0.00 0.34 0.00 92 1013.9
20260903133031 45 225 0.9 2.6 0.00 0.34 0.00 93 1013.9
20260903131530 45 225 0.9 2.6 0.00 0.34 0.00 94 1013.9
20260903130030 44 225 0.0 1.7 0.00 0.34 0.00 93 1013.8
20260903124529 44 225 0.0 2.6 0.00 0.34 0.00 93 1013.8
20260903121529 44 236 0.9 3.5 0.00 0.34 0.00 93 1013.7
20260903120030 43 271 0.0 2.6 0.00 0.34 0.00 93 1013.7
20260903114607 43 235 0.0 0.9 0.00 0.34 0.00 93 1013.6
20260903113041 44 225 0.0 1.7 0.00 0.34 0.00 93 1013.6
20260903111531 44 225 0.0 1.7 0.00 0.34 0.00 92 1013.5
20260903104647 47 247 0.0 1.7 0.00 0.34 0.00 90 1013.3
20260903103028 47 303 0.0 3.5 0.00 0.34 0.00 90 1013.4
20260903101530 46 250 0.0 1.7 0.00 0.34 0.00 92 1013.3
20260903100108 46 266 0.0 1.7 0.00 0.34 0.00 92 1013.3
20260903094606 47 247 0.0 1.7 0.00 0.34 0.00 92 1013.1
20260903093036 47 226 0.0 1.7 0.00 0.34 0.00 92 1013.2
20260903091529 47 225 0.9 1.7 0.00 0.34 0.00 93 1013.2
20260903090031 48 239 0.9 2.6 0.00 0.34 0.00 93 1013.2
20260903084528 48 225 0.9 2.6 0.00 0.34 0.00 94 1013.0
20260903083032 48 254 0.9 2.6 0.00 0.34 0.00 94 1012.9
20260903081530 48 232 0.9 1.7 0.00 0.34 0.00 95 1012.9
20260903080030 49 239 0.9 3.5 0.00 0.34 0.00 95 1012.9
20260903074532 50 234 0.9 3.5 0.00 0.34 0.00 96 1012.8
20260903071530 50 267 0.0 0.9 0.00 0.34 0.00 95 1012.5
20260903070029 50 264 0.0 4.3 0.00 0.34 0.00 95 1012.4
20260903064530 50 243 0.0 0.9 0.00 0.34 0.34 95 1012.2
20260903063028 50 202 0.0 0.0 0.00 0.34 0.34 94 1012.4
20260903061531 51 202 0.0 0.0 0.00 0.34 0.34 94 1012.3
20260903060031 53 202 0.0 0.0 0.00 0.34 0.34 94 1012.3
20260903054531 54 202 0.0 0.0 0.00 0.34 0.34 95 1012.5
20260903053029 54 202 0.0 0.9 0.00 0.34 0.34 94 1012.6
20260903051532 54 73 0.0 1.7 0.00 0.34 0.34 94 1012.4
20260903050030 54 67 0.0 0.0 0.01 0.34 0.34 94 1012.1
20260903044530 54 67 0.0 0.0 0.03 0.34 0.34 93 1012.2
20260903043030 54 67 0.0 0.0 0.06 0.34 0.34 93 1012.2
20260903041531 54 67 0.0 0.0 0.16 0.34 0.33 92 1011.9